Location: Gandikunta
(16.3784°N, 80.8378°E)
Time: 19:38:01
(UTC+00:00)

Atlas Centaur 2 - Pass Details

Date: 19 May 2025
Orbit: 456 x 1256 km, 30.4° (Epoch: 23 June)

Event Time Altitude Azimuth Distance (km) Brightness Sun altitude
Rises 16:14:56 0° 288° (WNW) 3,752 6.3 -40.3°
Reaches altitude 10° 16:17:35 10° 282° (WNW) 2,904 5.5 -40.7°
Enters shadow 16:20:51 28° 267° (W) 2,001 4.3 -41.3°
